FW2498 Weather Reports


Display with metric or nautical units.
time (UTC)temp
F
wind
direction
speed
MPH
gust
MPH
rain 1hr
in
rain 24hr
in
rain mn
in
humidity
%
barometer
mb
20260508163012 63 235 11.0 17.0 0.00 0.00 0.00 31 1011.5
20260508161510 62 233 9.0 16.0 0.00 0.00 0.00 33 1011.6
20260508160008 61 206 11.0 16.0 0.00 0.00 0.00 35 1011.7
20260508154502 60 216 7.0 12.0 0.00 0.00 0.00 37 1011.8
20260508153100 58 203 6.0 12.0 0.00 0.00 0.00 37 1012.1
20260508151552 57 264 8.0 13.0 0.00 0.00 0.00 38 1012.2
20260508150047 57 250 10.0 12.0 0.00 0.00 0.00 40 1012.2
20260508144543 56 250 11.0 13.0 0.00 0.00 0.00 40 1012.2
20260508143039 55 250 12.0 14.0 0.00 0.00 0.00 44 1012.3
20260508141546 54 234 10.0 12.0 0.00 0.00 0.00 43 1012.3
20260508140029 52 226 8.0 12.0 0.00 0.00 0.00 46 1012.4
20260508134525 51 226 9.0 12.0 0.00 0.00 0.00 47 1012.5
20260508133022 49 231 6.0 9.0 0.00 0.00 0.00 48 1012.4
20260508131517 48 229 9.0 11.0 0.00 0.00 0.00 48 1012.4
20260508130012 46 267 8.0 10.0 0.00 0.00 0.00 48 1012.3
20260508124507 43 269 2.0 4.0 0.00 0.00 0.00 57 1012.2
20260508123004 42 269 2.0 4.0 0.00 0.00 0.00 55 1012.0
20260508121611 42 224 3.0 5.0 0.00 0.00 0.00 56 1012.1
20260508120101 42 277 4.0 9.0 0.00 0.00 0.00 56 1011.9
20260508114553 45 298 8.0 9.0 0.00 0.00 0.00 52 1011.7
20260508113056 46 315 6.0 8.0 0.00 0.00 0.00 49 1011.4
20260508111557 45 309 4.0 5.0 0.00 0.00 0.00 52 1011.3
20260508110057 42 295 3.0 5.0 0.00 0.00 0.00 60 1011.2
20260508104545 42 294 4.0 6.0 0.00 0.00 0.00 60 1011.0
20260508103053 43 305 3.0 8.0 0.00 0.00 0.00 62 1011.0
20260508101543 43 309 6.0 9.0 0.00 0.00 0.00 64 1010.7
20260508100037 43 325 8.0 10.0 0.00 0.00 0.00 63 1010.5
20260508094544 44 318 9.0 11.0 0.00 0.00 0.00 64 1010.4
20260508093032 45 319 9.0 12.0 0.00 0.00 0.00 64 1010.0
20260508091529 45 304 11.0 15.0 0.00 0.00 0.00 66 1010.0
20260508090034 46 308 12.0 15.0 0.00 0.00 0.00 65 1009.9
20260508084528 48 301 12.0 16.0 0.00 0.00 0.00 63 1009.5
20260508083022 49 300 16.0 21.0 0.00 0.00 0.00 63 1009.3
20260508081520 48 271 13.0 16.0 0.00 0.00 0.00 67 1009.0
20260508080019 48 250 16.0 19.0 0.00 0.00 0.00 70 1009.0
20260508074517 47 254 16.0 19.0 0.00 0.00 0.00 71 1008.9
20260508073016 46 240 13.0 16.0 0.00 0.00 0.00 72 1008.8
20260508071513 46 240 13.0 15.0 0.00 0.00 0.00 70 1008.9
20260508070011 47 250 12.0 15.0 0.00 0.00 0.00 69 1008.9
20260508064508 46 250 11.0 13.0 0.00 0.00 0.00 67 1009.0
20260508063005 46 250 11.0 13.0 0.00 0.00 0.00 61 1009.1
20260508061503 46 250 12.0 13.0 0.00 0.00 0.00 58 1009.2
20260508060059 47 260 10.0 13.0 0.00 0.00 0.00 54 1009.2
20260508054604 49 240 10.0 12.0 0.00 0.00 0.00 53 1009.1
20260508053101 50 240 10.0 13.0 0.00 0.00 0.00 52 1009.1
20260508051556 50 227 11.0 14.0 0.00 0.00 0.00 51 1009.1
20260508050055 49 245 10.0 13.0 0.00 0.00 0.00 50 1009.3
20260508044553 50 240 6.0 9.0 0.00 0.00 0.00 46 1009.4
20260508043100 51 245 5.0 8.0 0.00 0.00 0.00 43 1009.5
20260508041556 52 250 5.0 9.0 0.00 0.00 0.00 41 1009.6
20260508040052 54 250 8.0 9.0 0.00 0.00 0.00 38 1009.7
20260508034556 54 262 4.0 5.0 0.00 0.00 0.00 38 1009.7
20260508033052 54 271 4.0 5.0 0.00 0.00 0.00 38 1009.8
20260508031550 55 298 1.0 2.0 0.00 0.00 0.00 37 1009.9
20260508030051 55 298 0.0 3.0 0.00 0.00 0.00 37 1009.8
20260508024551 55 298 3.0 4.0 0.00 0.00 0.00 36 1009.8
20260508023051 57 298 3.0 4.0 0.00 0.00 0.00 34 1009.6
20260508021552 60 298 3.0 5.0 0.00 0.00 0.00 31 1009.4
20260508020048 61 311 3.0 5.0 0.00 0.00 0.00 30 1009.4
20260508014553 61 304 4.0 7.0 0.00 0.00 0.00 30 1009.6
20260508013047 62 310 5.0 11.0 0.00 0.00 0.00 28 1009.6
20260508011547 63 327 10.0 14.0 0.00 0.00 0.00 28 1009.6
20260508010045 63 333 9.0 17.0 0.00 0.00 0.00 27 1009.6
20260508004545 63 327 12.0 17.0 0.00 0.00 0.00 25 1009.6
20260508003058 64 317 14.0 23.0 0.00 0.00 0.00 25 1009.4
20260508001544 64 298 13.0 20.0 0.00 0.00 0.00 25 1009.7
20260508000045 64 285 16.0 21.0 0.00 0.00 0.00 27 1009.7
20260507234541 64 310 13.0 24.0 0.00 0.00 0.00 26 1009.8
20260507233039 65 277 13.0 25.0 0.00 0.00 0.00 26 1009.8
20260507231537 64 269 14.0 18.0 0.00 0.00 0.00 25 1009.9
20260507230035 63 274 9.0 18.0 0.00 0.00 0.00 24 1009.7
20260507224539 64 312 14.0 18.0 0.00 0.00 0.00 23 1009.9
20260507223028 63 269 9.0 19.0 0.00 0.00 0.00 23 1009.9
20260507221527 63 235 13.0 22.0 0.00 0.00 0.00 23 1010.3
20260507220023 62 283 5.0 14.0 0.00 0.00 0.00 22 1010.4
20260507214520 61 233 6.0 12.0 0.00 0.00 0.00 22 1010.6
20260507213017 61 317 6.0 11.0 0.00 0.00 0.00 23 1010.8
20260507211515 60 313 7.0 12.0 0.00 0.00 0.00 24 1011.2
20260507210014 60 329 10.0 14.0 0.00 0.00 0.00 22 1011.5
20260507204513 60 336 9.0 14.0 0.00 0.00 0.00 23 1011.6
20260507203015 60 319 12.0 21.0 0.00 0.00 0.00 23 1011.6
20260507201511 60 332 10.0 15.0 0.00 0.00 0.00 23 1011.6
20260507200013 60 349 7.0 17.0 0.00 0.00 0.00 24 1011.7
20260507194510 59 359 8.0 13.0 0.00 0.00 0.00 23 1011.7
20260507193008 60 314 4.0 13.0 0.00 0.00 0.00 23 1011.8
20260507191509 60 349 6.0 14.0 0.00 0.00 0.00 22 1011.9
20260507190005 59 289 7.0 14.0 0.00 0.00 0.00 24 1011.9
20260507184510 60 271 6.0 15.0 0.00 0.00 0.00 23 1012.1
20260507183100 59 269 5.0 15.0 0.00 0.00 0.00 25 1012.2
20260507181559 58 337 8.0 15.0 0.00 0.00 0.00 26 1012.3
20260507180054 58 348 9.0 13.0 0.00 0.00 0.00 25 1012.5
20260507174551 57 13 6.0 11.0 0.00 0.00 0.00 25 1012.6
20260507173053 57 200 3.0 10.0 0.00 0.00 0.00 25 1012.7
20260507171549 58 358 3.0 9.0 0.00 0.00 0.00 25 1012.7
20260507170045 57 12 4.0 8.0 0.00 0.00 0.00 26 1012.8
20260507164541 57 245 2.0 8.0 0.00 0.00 0.00 24 1012.8